GW4013 Weather Reports


time (UTC)temp
C
wind
direction
speed
KPH
gust
KPH
rain 1hr
cm
rain 24hr
cm
rain mn
cm
humidity
%
barometer
mb
20260504175530 21 236 16.1 22.5 0.00 0.00 0.00 32 1008.3
20260504174525 21 213 12.9 30.6 0.00 0.00 0.00 31 1008.2
20260504173524 20 221 24.1 24.1 0.00 0.00 0.00 32 1008.3
20260504172524 21 216 12.9 25.7 0.00 0.00 0.00 32 1008.2
20260504171523 20 224 9.7 14.5 0.00 0.00 0.00 32 1008.4
20260504170521 20 238 9.7 20.9 0.00 0.00 0.00 33 1008.7
20260504150500 18 199 11.3 33.8 0.00 0.00 0.00 34 1009.8
20260504140452 17 196 8.0 8.0 0.00 0.00 0.00 38 1010.3
20260504130435 14 192 6.4 14.5 0.00 0.00 0.00 44 1011.1
20260504110409 6 102 3.2 6.4 0.00 0.00 0.00 79 1011.2
20260504100354 5 81 4.8 4.8 0.00 0.00 0.00 75 1010.8
20260504081337 7 111 4.8 4.8 0.00 0.00 0.00 63 1010.3
20260504080336 7 103 4.8 6.4 0.00 0.00 0.00 63 1010.3
20260504070332 6 95 3.2 4.8 0.00 0.00 0.00 67 1010.3
20260504050311 4 96 3.2 3.2 0.00 0.00 0.00 75 1010.2
20260504045308 4 96 3.2 3.2 0.00 0.00 0.00 75 1010.5
20260504044303 4 105 3.2 4.8 0.00 0.00 0.00 74 1010.5
20260504043303 5 86 3.2 4.8 0.00 0.00 0.00 70 1010.5
20260504042304 5 86 3.2 4.8 0.00 0.00 0.00 70 1010.4
20260504041300 5 86 3.2 4.8 0.00 0.00 0.00 70 1010.5
20260504040300 5 88 1.6 3.2 0.00 0.00 0.00 69 1010.4
20260504035259 5 89 1.6 3.2 0.00 0.00 0.00 68 1010.3
20260504034254 5 95 3.2 3.2 0.00 0.00 0.00 68 1010.2
20260504033254 6 114 3.2 3.2 0.00 0.00 0.00 68 1010.4
20260504032254 6 94 3.2 3.2 0.00 0.00 0.00 66 1010.2
20260504031254 6 103 3.2 3.2 0.00 0.00 0.00 66 1010.1
20260504030254 6 112 3.2 3.2 0.00 0.00 0.00 65 1010.2
20260504025253 6 105 1.6 3.2 0.00 0.00 0.00 63 1010.3
20260504024252 6 103 3.2 3.2 0.00 0.00 0.00 63 1010.1
20260504023251 7 116 3.2 3.2 0.00 0.00 0.00 59 1010.0
20260504022249 7 114 3.2 3.2 0.00 0.00 0.00 60 1010.2
20260504021244 7 105 3.2 3.2 0.00 0.00 0.00 59 1010.1
20260504020243 7 114 3.2 3.2 0.00 0.00 0.00 58 1010.0
20260504015241 7 107 3.2 3.2 0.00 0.00 0.00 60 1009.9
20260504014240 7 106 3.2 3.2 0.00 0.00 0.00 58 1009.9
20260504013235 8 100 3.2 3.2 0.00 0.00 0.00 57 1009.8
20260504012235 8 108 3.2 3.2 0.00 0.00 0.00 56 1009.7
20260504011234 8 115 3.2 4.8 0.00 0.00 0.00 55 1009.6
20260504010232 8 94 3.2 3.2 0.00 0.00 0.00 56 1009.5
20260504005232 8 92 3.2 3.2 0.00 0.00 0.00 54 1009.4
20260504004232 8 78 3.2 3.2 0.00 0.00 0.00 53 1009.0
20260504003232 8 109 3.2 3.2 0.00 0.00 0.00 54 1009.1
20260504002231 11 78 3.2 3.2 0.00 0.00 0.00 39 1008.9
20260504001231 11 78 3.2 3.2 0.00 0.00 0.00 39 1008.7
20260504000230 11 78 3.2 3.2 0.00 0.00 0.00 39 1008.6
20260503235226 11 78 3.2 3.2 0.00 0.00 0.00 39 1008.5
20260503234221 11 103 3.2 3.2 0.00 0.00 0.00 37 1008.4
20260503233219 11 103 3.2 3.2 0.00 0.00 0.00 36 1008.3
20260503232219 12 126 6.4 6.4 0.00 0.00 0.00 35 1008.4
20260503231214 12 173 1.6 8.0 0.00 0.00 0.00 35 1008.2
20260503230214 13 191 1.6 6.4 0.00 0.00 0.00 33 1008.2
20260503225211 13 48 3.2 9.7 0.00 0.00 0.00 32 1008.1
20260503224206 13 9 4.8 17.7 0.00 0.00 0.00 32 1008.0
20260503223201 13 23 11.3 12.9 0.00 0.00 0.00 32 1008.2
20260503222155 13 70 6.4 11.3 0.00 0.00 0.00 34 1007.9
20260503221150 13 33 4.8 4.8 0.00 0.00 0.00 34 1007.7
20260503220149 13 23 3.2 4.8 0.00 0.00 0.00 34 1008.0
20260503215149 13 12 6.4 6.4 0.00 0.00 0.00 34 1008.0
20260503214149 13 235 8.0 24.1 0.00 0.00 0.00 33 1008.0
20260503213145 13 19 4.8 14.5 0.00 0.00 0.00 36 1008.1
20260503212140 12 21 8.0 11.3 0.00 0.00 0.00 35 1008.0
20260503211138 13 143 9.7 9.7 0.00 0.00 0.00 35 1008.2
20260503210138 11 20 6.4 9.7 0.00 0.00 0.00 37 1007.8
20260503205135 12 15 6.4 22.5 0.00 0.00 0.00 35 1007.9
20260503204135 12 26 6.4 9.7 0.00 0.00 0.00 36 1008.0
20260503203135 11 40 6.4 12.9 0.00 0.00 0.00 37 1007.9
20260503202130 12 112 6.4 11.3 0.00 0.00 0.00 36 1007.7
20260503201125 11 75 6.4 19.3 0.00 0.00 0.00 37 1008.0
20260503200124 12 60 8.0 14.5 0.00 0.00 0.00 37 1007.9
20260503195123 13 18 9.7 14.5 0.00 0.00 0.00 35 1007.7
20260503194121 12 348 9.7 12.9 0.00 0.00 0.00 37 1007.9
20260503193120 12 21 6.4 24.1 0.00 0.00 0.00 36 1007.8
20260503192117 12 304 8.0 14.5 0.00 0.00 0.00 35 1007.7
20260503191117 11 354 6.4 11.3 0.00 0.00 0.00 37 1007.8
20260503190117 12 347 9.7 14.5 0.00 0.00 0.00 35 1007.7
20260503185114 12 171 6.4 24.1 0.00 0.00 0.00 37 1007.7
20260503184112 12 49 0.0 12.9 0.00 0.00 0.00 37 1007.9
20260503183112 12 255 8.0 14.5 0.00 0.00 0.00 35 1008.0
20260503182108 12 22 4.8 12.9 0.00 0.00 0.00 36 1007.6
20260503181107 12 334 9.7 14.5 0.00 0.00 0.00 35 1007.6